Regional Weather Roundup
Issued by NWS

Home | Current Version | Previous Version | Text Only | Print | Product List | Glossary Off
Versions: 1 2 3 4 5 6 7 8 9 10 11 12 13 14 15 16 17 18 19 20 21 22 23 24 25 26 27 28 29 30 31 32 33 34 35 36 37 38 39 40 41 42 43 44 45 46 47 48 49 50

000
ASUS43 KMKX 261711
RWRWI

WISCONSIN REGIONAL WEATHER ROUNDUP
NATIONAL WEATHER SERVICE MILWAUKEE/SULLIVAN WI
1200 PM CDT MON SEP 26 2016

NOTE: "FAIR" INDICATES FEW OR NO CLOUDS BELOW 12,000 FEET WITH NO
SIGNIFICANT WEATHER AND/OR OBSTRUCTIONS TO VISIBILITY.

WIZ001-002-006>008-014>016-023>028-261800-
NORTHWEST WISCONSIN

CITY           SKY/WX    TMP DP  RH WIND       PRES   REMARKS
SUPERIOR ARPT  CLOUDY    55  44  66 W14G29    29.74S
ASHLAND        LGT RAIN  52  48  86 W15       29.70S
HAYWARD        CLOUDY    55  41  59 W10G23    29.77S
SIREN          PTSUNNY   56  40  53 W16G28    29.83S
CUMBERLAND     CLOUDY    54  37  54 W24G37    29.83S
RICE LAKE      CLOUDY    57  38  49 W21G29    29.85R
CHETEK         NOT AVBL
LADYSMITH      CLOUDY    56  41  56 W20G33    29.81S
EAU CLAIRE     MOSUNNY   60  39  45 W21G37    29.83F
MENOMONIE      MOSUNNY   61  40  44 W17G35    29.86F
NEW RICHMOND   PTSUNNY   58  38  48 NW24G35   29.89R
OSCEOLA        PTSUNNY   58  39  48 W20G31    29.92R
$$

WIZ003>005-009-010-017-018-261800-
NORTH CENTRAL WISCONSIN

CITY           SKY/WX    TMP DP  RH WIND       PRES   REMARKS
MANITOWISH WTR NOT AVBL
ARBOR VITAE    DRIZZLE   52  48  88 W10G21    29.71F
WOODRUFF       DRIZZLE   52  48  88 W10G21    29.71F
RHINELANDER    CLOUDY    52  44  74 W21G31    29.73F
EAGLE RIVER    CLOUDY    49  46  90 W18G26    29.69S
LAND O LAKES   DRIZZLE   49  46  92 W12G20    29.69S
PHILLIPS       CLOUDY    52  42  68 W9G20     29.75S
TOMAHAWK       DRIZZLE   51  42  69 W14G24    29.77R
MEDFORD        CLOUDY    55  39  53 W23G30    29.79S
MERRILL        CLOUDY    57  42  56 W16G22    29.77S
$$

WIZ029-030-035-036-043>047-261800-
CENTRAL WISCONSIN

CITY           SKY/WX    TMP DP  RH WIND       PRES   REMARKS
WAUSAU         PTSUNNY   58  39  49 W22G37    29.77F
MOSINEE        PTSUNNY   57  39  51 W18G31    29.81S
MARSHFIELD     PTSUNNY   60  39  45 W24G33    29.82F
STEVENS POINT    N/A     57  38  47 W17G29    29.82F
WAUPACA        MOSUNNY   64  41  43 W20G29    29.82S
WAUTOMA        PTSUNNY   63  40  42 W25G36    29.85F
WISC RAPIDS    PTSUNNY   61  41  47 NW15G29   29.85F
CAMP DOUGLAS   MOSUNNY   63  45  51 W18       29.89F
$$

WIZ011>013-019>022-031-037>040-048>050-261800-
NORTHEAST WISCONSIN

CITY           SKY/WX    TMP DP  RH WIND       PRES   REMARKS
ANTIGO         CLOUDY    54  42  62 W26G32    29.76S
SHAWANO        CLOUDY    63  43  47 W17G31    29.76F
OCONTO         NOT AVBL
STURGEON BAY   PTSUNNY   59  46  62 W17G26    29.76S
GREEN BAY      LGT RAIN  62  44  51 W21G29    29.78F
MANITOWOC      MOSUNNY   63  43  48 W17G24    29.80F
APPLETON       PTSUNNY   61  37  41 W25G35    29.80F
CLINTONVILLE   NOT AVBL
OSHKOSH        MOSUNNY   62  39  42 W18G29    29.82F
$$

WIZ032>034-041-042-053>061-261800-
SOUTHWEST WISCONSIN

CITY           SKY/WX    TMP DP  RH WIND       PRES   REMARKS
LA CROSSE      SUNNY     66  38  35 W21G31    29.92F
SPARTA         SUNNY     62  40  44 W23G29    29.91F
VIROQUA        MOSUNNY   62  37  39 W12G24    29.94F
BOSCOBEL       SUNNY     65  37  35 W17G26    29.97F
PRAIRIE DU CHI SUNNY     65  34  32 W16G29    29.98F
PLATTEVILLE    SUNNY     64  38  39 W24G33    30.00F
$$

WIZ056-057-062-063-064-067-068-261800-
SOUTH CENTRAL WISCONSIN

CITY           SKY/WX    TMP DP  RH WIND       PRES   REMARKS
REEDSBURG      NOT AVBL
BARABOO/DELLS  PTSUNNY   62  37  39 W17G28    29.91F
LONE ROCK      MOSUNNY   63  39  41 W21G31    29.95F
MINERAL POINT  MOSUNNY   64  36  34 W16G28    29.97F
MADISON        MOSUNNY   62  40  44 W14G21    29.93F
MIDDLETON      NOT AVBL
WATERTOWN      PTSUNNY   63  40  43 W18G28    29.91S
MONROE         SUNNY     61  36  39 W21G36    29.98S
JANESVILLE     MOSUNNY   64  37  36 W24G30    29.95F
$$

WIZ051-052-058>065-066-070>072-261800-
SOUTHEAST WISCONSIN

CITY           SKY/WX    TMP DP  RH WIND       PRES   REMARKS
MILWAUKEE      MOSUNNY   66  41  40 W17G33    29.91F
WAUKESHA       MOSUNNY   61  39  44 W18G33    29.91
MILWAUKEE/TIMM MOSUNNY   63  37  39 W24G31    29.90F
RACINE         MOSUNNY   65  39  38 W21G31    29.93F
BURLINGTON     MOSUNNY   62  38  40 W15G29    29.93F
KENOSHA        MOSUNNY   64  42  44 W25G35    29.93F
FOND DU LAC    MOSUNNY   62  38  40 W22G33    29.85F
SHEBOYGAN      PTSUNNY   63  39  41 W22G37    29.84F
WEST BEND      PTSUNNY   61  37  41 W23G33    29.87F
JUNEAU         MOSUNNY   61  37  41 W23G33    29.90F
$$

LSZ147-162-261800-
LAKE SUPERIOR

STATION/POSITION TIME  TEMP    WIND        PRES    WAVE
                       AIR SEA DIR/SP/G            HT/PER
                 (UTC) (F)     (DEG/KT/KT) (MB)    (FT/S)
W MID LAKE BUOY  1650   54 54  250/ 29/ 39  999.8F   7/ 6
DEVILS ISLAND    1600   53     260/ 28/ 35 1003.2R
SAXON HARBOR     1640   52     220/  8/ 13 1005.4R
$$

LMZ867-665-643>646-261800-
LAKE MICHIGAN

STATION/POSITION TIME  TEMP    WIND        PRES    WAVE
                       AIR SEA DIR/SP/G            HT/PER
                 (UTC) (F)     (DEG/KT/KT) (MB)    (FT/S)
CHAMBERS ISLAND  1600   56     210/ 14/ 23 1006.4S
N MID LAKE BUOY  1650   58 67  250/ 25/ 31 1005.0F   6/ 7
NORTHPORT PIER   1600   58     250/  5/ 17 1006.4F
KEWAUNEE LAKESHO 1600   58     260/ 10/ 16 1008.6S
SHEBOYGAN LAKESH 1700   62     250/ 21/ 27 1009.6F
PORT WASHINGTON  1631   65     260/ 14/ 25 1012.2F
ATWATER BUOY     1700   62 55  240/ 17/ 23 1012.0F
MILWAUKEE LAKESH 1610   61     260/ 15/ 21   N/A
S MID LAKE BUOY  1650   62 71  250/ 21/ 25 1012.5F   5/ 5
KENOSHA   LAKESH 1700   64     260/ 20/ 29 1013.2F
$$

TC  - TEMPERATURE IN CELSIUS
VSB - VISIBILITY IN STATUTE MILES
WCI - WIND CHILL INDEX
HX  - HEAT INDEX





USA.gov is the U.S. government's official web portal to all federal, state and local government web resources and services.